This is the latest recevied weather packets stored in our database for station/object VK6DUG. If no packets are shown the sender has not sent any weather packets the latest 10 day(s).
| Time | Temp. | Humidity | Pressure | Rain* | Wind** | Luminosity | Snow |
|---|---|---|---|---|---|---|---|
| 1778136625 | 22.22° C | 44% | 1030.8 hPa | 0 mm | - | 361 W/m² | - |
| 1778136023 | 22.22° C | 44% | 1030.9 hPa | 0 mm | - | 385 W/m² | - |
| 1778135420 | 22.22° C | 44% | 1031 hPa | 0 mm | - | 414 W/m² | - |
| 1778134818 | 22.22° C | 45% | 1031.1 hPa | 0 mm | - | 440 W/m² | - |
| 1778134235 | 21.67° C | 46% | 1031.3 hPa | 0 mm | - | 461 W/m² | - |
| 1778133633 | 21.67° C | 47% | 1031.3 hPa | 0 mm | - | 475 W/m² | - |
| 1778133030 | 21.67° C | 48% | 1031.4 hPa | 0 mm | - | 490 W/m² | - |
| 1778132428 | 21.67° C | 48% | 1031.4 hPa | 0 mm | - | 510 W/m² | - |
| 1778131825 | 21.67° C | 48% | 1031.7 hPa | 0 mm | - | 524 W/m² | - |
| 1778131222 | 21.11° C | 49% | 1031.8 hPa | 0 mm | - | 532 W/m² | - |
| 1778130619 | 21.67° C | 47% | 1031.9 hPa | 0 mm | - | 536 W/m² | - |
| 1778130016 | 21.11° C | 48% | 1032 hPa | 0 mm | - | 540 W/m² | - |
| 1778129434 | 20.56° C | 50% | 1032.3 hPa | 0 mm | - | 546 W/m² | - |
| 1778128831 | 20.56° C | 50% | 1032.6 hPa | 0 mm | - | 545 W/m² | - |
| 1778128229 | 20.56° C | 50% | 1032.7 hPa | 0 mm | - | 542 W/m² | - |
| 1778127626 | 20.56° C | 50% | 1032.9 hPa | 0 mm | - | 538 W/m² | - |
| 1778127024 | 20.56° C | 51% | 1033.1 hPa | 0 mm | - | 533 W/m² | - |
| 1778126421 | 20° C | 51% | 1033.3 hPa | 0 mm | - | 532 W/m² | - |
| 1778125819 | 20.56° C | 51% | 1033.4 hPa | 0 mm | - | 533 W/m² | - |
| 1778125216 | 20° C | 51% | 1033.6 hPa | 0 mm | - | 533 W/m² | - |
| 1778124635 | 20° C | 52% | 1033.7 hPa | 0 mm | - | 528 W/m² | - |
| 1778124032 | 20° C | 52% | 1033.9 hPa | 0 mm | - | 518 W/m² | - |
| 1778123430 | 19.44° C | 53% | 1034 hPa | 0 mm | - | 501 W/m² | - |
| 1778122827 | 18.89° C | 54% | 1034.2 hPa | 0 mm | - | 482 W/m² | - |
| 1778122225 | 18.89° C | 54% | 1034.2 hPa | 0 mm | - | 467 W/m² | - |
* Rain latest hour (hover to see other rain measurements)
** Current wind speed in m/s (hover to see current wind gust speed)